User: anonymous   Login
Location: Buena Vista
(37.7110°N, 119.7938°W)
Time: 21:27:36
(UTC+00:00)
Language:

ISS - Orbit

View from above orbital plane
View from above orbital plane
View from above satellite
View from above satellite

Ground track
Ground track

The orbit data is extracted from the following two-line orbital elements,

1 25544U 98067A   24287.46659629  .00028395  00000-0  50666-3 0  9993
2 25544  51.6381  89.5489 0009128  65.4963 294.6976 15.49796863476897
Epoch (UTC): 13 October 2024 11:11:53
Eccentricity: 0.0009128
inclination: 51.6381°
perigee height: 411 km
apogee height: 423 km
right ascension of ascending node: 89.5489°
argument of perigee: 65.4963°
revolutions per day: 15.49796863
mean anomaly at epoch: 294.6976°
orbit number at epoch: 47689

The dashed part of the orbit path shows where the satellite is in the earth's shadow,  

DLR